TimePST,TemperatureF,Dew PointF,Humidity,Sea Level PressureIn,VisibilityMPH,Wind Direction,Wind SpeedMPH,Gust SpeedMPH,PrecipitationIn,Events,Conditions,WindDirDegrees,DateUTC
12:53 AM,50.0,21.9,33,30.36,10.0,Variable,3.5,-,N/A,,Clear,0,2013-02-15 08:53:00
1:53 AM,48.9,21.0,33,30.37,10.0,NE,10.4,-,N/A,,Clear,50,2013-02-15 09:53:00
2:53 AM,48.0,21.9,36,30.37,10.0,Calm,Calm,-,N/A,,Clear,0,2013-02-15 10:53:00
3:53 AM,48.0,21.0,34,30.37,10.0,North,15.0,-,N/A,,Clear,10,2013-02-15 11:53:00
4:53 AM,45.0,21.0,39,30.40,10.0,Variable,4.6,-,N/A,,Clear,0,2013-02-15 12:53:00
5:53 AM,48.9,21.0,33,30.40,10.0,NNW,11.5,-,N/A,,Clear,340,2013-02-15 13:53:00
6:53 AM,45.0,21.0,39,30.42,10.0,NNW,6.9,-,N/A,,Clear,340,2013-02-15 14:53:00
7:53 AM,48.9,21.0,33,30.45,10.0,NNW,8.1,-,N/A,,Clear,340,2013-02-15 15:53:00
8:53 AM,53.1,21.0,29,30.46,10.0,ESE,3.5,-,N/A,,Clear,120,2013-02-15 16:53:00
9:53 AM,55.9,19.9,25,30.46,10.0,Variable,5.8,-,N/A,,Clear,0,2013-02-15 17:53:00
10:53 AM,60.1,18.0,20,30.44,10.0,East,5.8,-,N/A,,Clear,80,2013-02-15 18:53:00
11:53 AM,60.1,17.1,19,30.42,10.0,Variable,3.5,-,N/A,,Clear,0,2013-02-15 19:53:00
12:53 PM,63.0,16.0,16,30.40,10.0,Calm,Calm,-,N/A,,Clear,0,2013-02-15 20:53:00
1:53 PM,64.0,16.0,16,30.38,10.0,Variable,3.5,-,N/A,,Clear,0,2013-02-15 21:53:00
2:53 PM,64.9,15.1,15,30.37,10.0,ESE,3.5,-,N/A,,Clear,120,2013-02-15 22:53:00
3:53 PM,66.2,15.8,14,30.31,10.0,Calm,Calm,-,N/A,,Clear,0,2013-02-15 23:53:00
4:53 PM,66.0,15.1,14,30.35,10.0,Calm,Calm,-,N/A,,Clear,0,2013-02-16 00:53:00
5:53 PM,62.1,16.0,17,30.36,10.0,ESE,3.5,-,N/A,,Clear,120,2013-02-16 01:53:00
6:53 PM,57.9,19.0,22,30.38,10.0,WNW,5.8,-,N/A,,Clear,290,2013-02-16 02:53:00
7:53 PM,55.0,19.9,25,30.39,10.0,NW,5.8,-,N/A,,Clear,310,2013-02-16 03:53:00
8:53 PM,51.1,19.9,29,30.40,10.0,WNW,6.9,-,N/A,,Clear,300,2013-02-16 04:53:00
9:53 PM,50.0,19.9,31,30.41,10.0,Calm,Calm,-,N/A,,Clear,0,2013-02-16 05:53:00
10:53 PM,48.9,19.9,32,30.41,10.0,WNW,4.6,-,N/A,,Clear,300,2013-02-16 06:53:00
11:53 PM,46.9,19.0,33,30.41,10.0,NW,4.6,-,N/A,,Clear,320,2013-02-16 07:53:00